User: anonymous   Login
Location: Newark
(54.8972°N, 99.8189°W)
Time: 22:25:13
(UTC+00:00)
Language:

Vanguard 3 - Orbit

View from above orbital plane
View from above orbital plane
View from above satellite
View from above satellite

Ground track
Ground track

The orbit data is extracted from the following two-line orbital elements,

1    20U 59007A   19318.15376977  .00000044  00000-0  63494-5 0  9999
2    20  33.3466 232.6019 1666840 199.3873 153.5128 11.55691325205609
Epoch (UTC): 14 November 2019 03:41:25
Eccentricity: 0.1666840
inclination: 33.3466°
perigee height: 508 km
apogee height: 3263 km
right ascension of ascending node: 232.6019°
argument of perigee: 199.3873°
revolutions per day: 11.55691325
mean anomaly at epoch: 153.5128°
orbit number at epoch: 20560

The dashed part of the orbit path shows where the satellite is in the earth's shadow,  

DLR